Retour au catalogue

STARLINK-34357

ActifCommunicationsVLEO
NORAD 64310·PAYLOAD·🇺🇸 United States

Lancé Jun 8, 2025 depuis Vandenberg Space Force Base

Loading…

Prochains Passages (prochaines 24 heures)

TLE

FraisSource: CelesTrak SupGP

Époque: Sep 14, 2026, 22:53 UTC

1 64310C 25123V   26257.95395833  .00036836  00000+0  12814-2 0  2574
2 64310  70.0004  75.8383 0003338 269.9582 107.3708 15.29559605    13

Suivez STARLINK-34357 en temps réel avec AllMySat

Download on the App Store